Showing default

YUNYAO-1 43, 63344

Orbit data source: Space-Track

YUNYAO-1 43, 63344 is a payload satellite owned by Yunyao yuhang (CN) in SSO that was launched on Fri, 21 Mar 2025 UTC via a GUSHENXING 1 launch vehicle from the Jiuquan Satellite Launch Center, China (JSC). Payload-class satellites include a variety of spacecraft equipped with specific instruments for various scientific and technological missions. These include communications satellites like Starlink; space stations such as the ISS; scientific satellites like the Hubble; Earth observation satellites from companies like Planet Labs, Umbra, and HawkEye 360; GPS; miniature CubeSats for education and research; and military/defense satellites.

Loading next visibility...
Identifier
63344, 2025-059A
Orbit
SSO
Country
Flag of CNCN / PRC
Related business
Manufacturer
Changguang WJ
Mission
Operational Commercial Meteo Radio Occ.
Bus & Motor
YY-1, Unknown motor
Mass
~50 kg wet, ~50 kg dry
Launch date (UTC)
2025-03-21 (11 months ago)
Launch vehicle
GUSHENXING 1
Launch site
Jiuquan Satellite Launch Center, China (JSC)
Object type
Payload
Rocket body
Debris
Shape & HBR
Box + 1 Pan, 0.5 m
Radar Cross Section
5.339 m², Medium (>0.1 m² and < 1m²)

Expand to show TLE details & history
Last TLE update: 5 hours ago

TLE from 5 hours ago
0 YUNYAO-1 43
1 63344U 25059A   26037.19151868  .00007962  00000-0  49246-3 0  9990
2 63344  97.6043 219.3519 0013841 242.1132 117.8696 15.10023885 48523
Epoch: 2026-02-06T04:35Z
TLE epoch observation values (Epoch: 2026-02-06T04:35:47.213Z)
Latitude
-0.00003°
Longitude
14.07225°
Altitude
543.683 km
Speed
7.588 km/s
True Right ascension
14h 37m 24s
True Declination
0° 00' 00"
Sunlit
Object was in daylight at epoch
Visualization orbit readout
Latitude
Unknown
Longitude
Unknown
Altitude
Unknown
Speed
Unknown
Apparent Right ascension
Unknown
Apparent Declination
Unknown
Sunlit
N/A
Visualization observer readout
Local Sidereal Time
11:52:34
Azimuth
Unknown
Elevation
Unknown
Doppler factor
Unknown
Orbital elements
Apogee altitude
542.681 km
Perigee altitude
523.549 km
Semi-major axis
6,911.252 km
Eccentricity
0.00138
Inclination
97.6043°
RAAN
219.3519°
Arg. of periapsis
242.1132°
True anomaly
118.0097°
Mean anomaly
117.8696°
Eccentric anomaly
117.93966°
Mean motion
3.77753 °/min
Orbital period
95.3 mins
BSTAR
0.00049246
Loading maneuver chart data...
Computing Atmospheric mass density...
Loading historical data...
Loading historical data...
Loading historical data...
Loading historical data...
Loading historical data...
Loading historical data...
Loading historical data...
Other satellites on launch #59 in the year 2025 (2025-03-21 UTC)

Documentation

Showing up to 5 results
|